Weather History for Massena, NY

Change the Weather History Date:

Friday, October 4, 2013

  Actual Average Record
Temperature  
Mean Temperature 54 °F 51 °F  
Max Temperature 62 °F 61 °F 82 °F (1951)
Min Temperature 46 °F 40 °F 22 °F (1948)
Degree Days  
Heating Degree Days 11 14  
Month to date heating degree days 21 55  
Since 1 July heating degree days 322 355  
Cooling Degree Days 0 0  
Month to date cooling degree days 0 0  
Year to date cooling degree days 418 361  
Growing Degree Days 4 (Base 50)    
Moisture  
Dew Point 47 °F    
Average Humidity 80    
Maximum Humidity 100    
Minimum Humidity 60    
Precipitation  
Precipitation T in 0.11 in 0.93 in (1949)
Month to date precipitation T 0.43  
Year to date precipitation 28.56 26.62  
Sea Level Pressure  
Sea Level Pressure 30.09 in    
Wind  
Wind Speed 6 mph (NE)    
Max Wind Speed 15 mph    
Max Gust Speed 21 mph    
Visibility 8 miles    
Events Rain    
T = Trace of Precipitation, MM = Missing Value Source: NWS Daily Summary

Daily Weather History Graph

Daily Weather History Graph

Search for Another Location

Airport:

Trip Planner

Search our weather history database for the weather conditions in past years. The results will help you decide how hot, cold, wet, or windy it might be!

Date:

Astronomy

Oct. 04, 2013 Rise Set
Actual Time 7:01 AM EDT 6:33 PM EDT
Civil Twilight 6:32 AM EDT 7:03 PM EDT
Nautical Twilight 5:58 AM EDT 7:36 PM EDT
Astronomical Twilight 5:23 AM EDT 8:11 PM EDT
Moon 6:34 AM EDT (10/4) 6:13 PM EDT (10/4)
Length of Visible Light 12h 31m
Length of Day
11h 32m
Waning Crescent, 0% of the Moon is Illuminated
Oct 4
Waning Crescent
Oct 4
New
Oct 11
First Quarter
Oct 18
Full
Oct 26
Last Quarter

Hourly Weather History & Observations

Time (EDT) Temp. Dew Point Humidity Pressure Visibility Wind Dir Wind Speed Gust Speed Precip Events Conditions
12:53 AM 50.0 °F 46.9 °F 89% 30.07 in 10.0 mi Calm Calm - N/A   Clear
1:53 AM 48.0 °F 45.0 °F 89% 30.07 in 6.0 mi Calm Calm - N/A   Clear
2:08 AM 46.4 °F 44.6 °F 93% 30.06 in 0.8 mi Calm Calm - N/A   Mostly Cloudy
2:11 AM 46.4 °F 46.4 °F 100% 30.06 in 1.5 mi Calm Calm - N/A   Mostly Cloudy
2:13 AM 46.4 °F 46.4 °F 100% 30.06 in 3.0 mi Calm Calm - N/A   Mostly Cloudy
2:53 AM 48.0 °F 46.9 °F 96% 30.07 in 7.0 mi Calm Calm - N/A   Partly Cloudy
3:06 AM 48.2 °F 46.4 °F 93% 30.06 in 2.5 mi Calm Calm - N/A   Mostly Cloudy
3:14 AM 48.2 °F 46.4 °F 93% 30.06 in 9.0 mi Calm Calm - N/A   Mostly Cloudy
3:47 AM 46.4 °F 46.4 °F 100% 30.06 in 1.8 mi Calm Calm - N/A   Clear
3:53 AM 46.9 °F 45.0 °F 93% 30.07 in 3.0 mi Calm Calm - N/A   Clear
4:53 AM 46.9 °F 46.0 °F 97% 30.07 in 10.0 mi Calm Calm - N/A   Clear
5:53 AM 46.9 °F 45.0 °F 93% 30.09 in 10.0 mi Calm Calm - N/A   Partly Cloudy
6:53 AM 48.0 °F 46.0 °F 93% 30.09 in 10.0 mi Calm Calm - N/A   Partly Cloudy
7:53 AM 51.1 °F 48.0 °F 89% 30.11 in 10.0 mi ENE 3.5 mph - N/A   Overcast
8:53 AM 54.0 °F 50.0 °F 86% 30.10 in 10.0 mi ENE 8.1 mph - N/A   Overcast
9:53 AM 57.9 °F 48.9 °F 72% 30.12 in 10.0 mi ENE 12.7 mph - N/A   Overcast
10:53 AM 59.0 °F 48.0 °F 67% 30.12 in 10.0 mi NE 11.5 mph - N/A   Overcast
11:53 AM 57.9 °F 48.9 °F 72% 30.11 in 10.0 mi NE 13.8 mph - 0.00 in Rain Light Rain
12:53 PM 59.0 °F 51.1 °F 75% 30.10 in 10.0 mi East 6.9 mph - 0.00 in   Overcast
1:53 PM 61.0 °F 48.9 °F 64% 30.09 in 10.0 mi NE 12.7 mph - 0.00 in   Mostly Cloudy
2:53 PM 61.0 °F 48.9 °F 64% 30.09 in 10.0 mi NE 11.5 mph - N/A   Overcast
3:53 PM 62.1 °F 48.9 °F 62% 30.08 in 10.0 mi NE 11.5 mph - N/A   Scattered Clouds
4:53 PM 61.0 °F 48.9 °F 64% 30.08 in 10.0 mi NE 11.5 mph - N/A   Overcast
5:53 PM 60.1 °F 46.9 °F 62% 30.08 in 10.0 mi ENE 5.8 mph - N/A   Overcast
6:53 PM 57.9 °F 46.9 °F 67% 30.09 in 10.0 mi NNE 6.9 mph - N/A   Overcast
7:53 PM 57.9 °F 46.0 °F 65% 30.11 in 10.0 mi NE 8.1 mph - N/A   Overcast
8:53 PM 57.0 °F 46.0 °F 67% 30.11 in 10.0 mi ENE 5.8 mph - N/A   Overcast
9:53 PM 55.0 °F 46.0 °F 72% 30.12 in 10.0 mi ENE 4.6 mph - N/A   Mostly Cloudy
10:53 PM 55.9 °F 46.0 °F 69% 30.11 in 10.0 mi ENE 4.6 mph - N/A   Overcast
11:53 PM 55.0 °F 45.0 °F 69% 30.12 in 10.0 mi NNE 4.6 mph - N/A   Overcast